| time (UTC) | temp F | wind direction | speed MPH | gust MPH | rain 1hr in | rain 24hr in | rain mn in | humidity % | barometer mb |
| 20260509083911 | 51 | 0 | 0.0 | 0.0 | 0.00 | 0.00 | 0.00 | 98 | 1010.7 |
| 20260509083411 | 51 | 346 | 0.0 | 2.0 | 0.00 | 0.00 | 0.00 | 97 | 1010.8 |
| 20260509082911 | 51 | 0 | 0.0 | 1.0 | 0.00 | 0.00 | 0.00 | 97 | 1010.8 |
| 20260509082412 | 51 | 0 | 0.0 | 0.0 | 0.00 | 0.00 | 0.00 | 97 | 1010.9 |
| 20260509081911 | 51 | 0 | 0.0 | 2.0 | 0.00 | 0.00 | 0.00 | 97 | 1010.8 |
| 20260509081411 | 51 | 345 | 1.0 | 2.0 | 0.00 | 0.00 | 0.00 | 96 | 1010.7 |
| 20260509080915 | 52 | 321 | 0.0 | 1.0 | 0.00 | 0.00 | 0.00 | 96 | 1010.7 |
| 20260509080411 | 52 | 340 | 0.0 | 1.0 | 0.00 | 0.00 | 0.00 | 96 | 1010.7 |
| 20260509075912 | 52 | 0 | 0.0 | 0.0 | 0.00 | 0.00 | 0.00 | 96 | 1010.7 |
| 20260509075412 | 52 | 0 | 0.0 | 2.0 | 0.00 | 0.00 | 0.00 | 95 | 1010.7 |
| 20260509074911 | 52 | 0 | 0.0 | 0.0 | 0.00 | 0.00 | 0.00 | 95 | 1010.8 |
| 20260509074411 | 53 | 0 | 0.0 | 0.0 | 0.00 | 0.00 | 0.00 | 94 | 1010.7 |
| 20260509073911 | 53 | 0 | 0.0 | 2.0 | 0.00 | 0.00 | 0.00 | 94 | 1010.6 |
| 20260509073411 | 53 | 1 | 2.0 | 2.0 | 0.00 | 0.00 | 0.00 | 94 | 1010.6 |
| 20260509072913 | 53 | 0 | 0.0 | 1.0 | 0.00 | 0.00 | 0.00 | 93 | 1010.6 |
| 20260509072411 | 53 | 0 | 0.0 | 1.0 | 0.00 | 0.00 | 0.00 | 94 | 1010.5 |
| 20260509071911 | 53 | 343 | 1.0 | 1.0 | 0.00 | 0.00 | 0.00 | 93 | 1010.5 |
| 20260509071411 | 53 | 345 | 1.0 | 2.0 | 0.00 | 0.00 | 0.00 | 93 | 1010.6 |
| 20260509070911 | 53 | 338 | 0.0 | 1.0 | 0.00 | 0.00 | 0.00 | 92 | 1010.6 |
| 20260509070411 | 53 | 0 | 0.0 | 1.0 | 0.00 | 0.00 | 0.00 | 92 | 1010.6 |
| 20260509065911 | 54 | 132 | 0.0 | 1.0 | 0.00 | 0.00 | 0.00 | 91 | 1010.6 |
| 20260509065411 | 54 | 0 | 0.0 | 0.0 | 0.00 | 0.00 | 0.00 | 91 | 1010.6 |
| 20260509064911 | 54 | 0 | 0.0 | 1.0 | 0.00 | 0.00 | 0.00 | 90 | 1010.5 |
| 20260509064412 | 54 | 0 | 0.0 | 0.0 | 0.00 | 0.00 | 0.00 | 90 | 1010.5 |
| 20260509063912 | 55 | 0 | 0.0 | 0.0 | 0.00 | 0.00 | 0.00 | 90 | 1010.7 |
| 20260509063411 | 55 | 0 | 0.0 | 0.0 | 0.00 | 0.00 | 0.00 | 89 | 1010.7 |
| 20260509062912 | 55 | 329 | 0.0 | 2.0 | 0.00 | 0.00 | 0.00 | 90 | 1010.7 |
| 20260509062411 | 55 | 0 | 0.0 | 2.0 | 0.00 | 0.00 | 0.00 | 89 | 1010.7 |
| 20260509061911 | 55 | 340 | 2.0 | 2.0 | 0.00 | 0.00 | 0.00 | 89 | 1010.7 |
| 20260509061411 | 55 | 330 | 0.0 | 2.0 | 0.00 | 0.00 | 0.00 | 88 | 1010.8 |
| 20260509060911 | 55 | 0 | 0.0 | 0.0 | 0.00 | 0.00 | 0.00 | 87 | 1010.8 |
| 20260509060411 | 56 | 0 | 0.0 | 2.0 | 0.00 | 0.00 | 0.00 | 86 | 1010.7 |
| 20260509055911 | 56 | 0 | 0.0 | 0.0 | 0.00 | 0.00 | 0.00 | 85 | 1010.7 |
| 20260509055411 | 56 | 0 | 0.0 | 0.0 | 0.00 | 0.00 | 0.00 | 84 | 1010.7 |
| 20260509054912 | 56 | 0 | 0.0 | 2.0 | 0.00 | 0.00 | 0.00 | 83 | 1010.7 |
| 20260509054412 | 56 | 337 | 1.0 | 2.0 | 0.00 | 0.00 | 0.00 | 83 | 1010.8 |
| 20260509053912 | 57 | 332 | 0.0 | 2.0 | 0.00 | 0.00 | 0.00 | 82 | 1010.8 |
| 20260509053411 | 57 | 336 | 1.0 | 2.0 | 0.00 | 0.00 | 0.00 | 82 | 1010.9 |
| 20260509052911 | 58 | 0 | 0.0 | 1.0 | 0.00 | 0.00 | 0.00 | 80 | 1011.0 |
| 20260509052411 | 58 | 286 | 0.0 | 4.0 | 0.00 | 0.00 | 0.00 | 80 | 1011.0 |
| 20260509051911 | 58 | 0 | 0.0 | 1.0 | 0.00 | 0.00 | 0.00 | 80 | 1011.1 |
| 20260509051414 | 59 | 0 | 0.0 | 2.0 | 0.00 | 0.00 | 0.00 | 78 | 1011.2 |
| 20260509050911 | 60 | 345 | 1.0 | 3.0 | 0.00 | 0.00 | 0.00 | 76 | 1011.1 |
| 20260509050411 | 60 | 315 | 0.0 | 2.0 | 0.00 | 0.00 | 0.00 | 75 | 1011.2 |
| 20260509045911 | 60 | 329 | 1.0 | 2.0 | 0.00 | 0.00 | 0.00 | 77 | 1011.2 |
| 20260509045411 | 60 | 344 | 2.0 | 3.0 | 0.00 | 0.00 | 0.00 | 76 | 1011.1 |
| 20260509044912 | 61 | 341 | 2.0 | 3.0 | 0.00 | 0.00 | 0.00 | 73 | 1011.1 |
| 20260509044411 | 62 | 334 | 1.0 | 3.0 | 0.00 | 0.00 | 0.00 | 71 | 1011.1 |
| 20260509043912 | 63 | 328 | 1.0 | 5.0 | 0.00 | 0.00 | 0.00 | 70 | 1011.1 |
| 20260509043411 | 64 | 329 | 2.0 | 5.0 | 0.00 | 0.00 | 0.00 | 67 | 1011.2 |
| 20260509042912 | 64 | 346 | 2.0 | 6.0 | 0.00 | 0.00 | 0.00 | 65 | 1011.1 |
| 20260509042411 | 64 | 329 | 4.0 | 6.0 | 0.00 | 0.00 | 0.00 | 65 | 1011.1 |
| 20260509041911 | 64 | 346 | 3.0 | 5.0 | 0.00 | 0.00 | 0.00 | 66 | 1011.1 |
| 20260509041411 | 64 | 344 | 3.0 | 4.0 | 0.00 | 0.00 | 0.00 | 64 | 1011.0 |
| 20260509040911 | 65 | 354 | 2.0 | 5.0 | 0.00 | 0.00 | 0.00 | 63 | 1011.0 |
| 20260509040412 | 65 | 341 | 3.0 | 5.0 | 0.00 | 0.00 | 0.00 | 62 | 1011.0 |
| 20260509035911 | 65 | 349 | 4.0 | 5.0 | 0.00 | 0.00 | 0.00 | 62 | 1010.8 |
| 20260509035411 | 65 | 353 | 3.0 | 5.0 | 0.00 | 0.00 | 0.00 | 62 | 1010.8 |
| 20260509034911 | 65 | 342 | 3.0 | 8.0 | 0.00 | 0.00 | 0.00 | 61 | 1010.7 |
| 20260509034411 | 65 | 2 | 2.0 | 5.0 | 0.00 | 0.00 | 0.00 | 61 | 1010.7 |
| 20260509033911 | 65 | 10 | 2.0 | 10.0 | 0.00 | 0.00 | 0.00 | 61 | 1010.6 |
| 20260509033411 | 65 | 337 | 3.0 | 7.0 | 0.00 | 0.00 | 0.00 | 61 | 1010.5 |
| 20260509032913 | 65 | 337 | 4.0 | 6.0 | 0.00 | 0.00 | 0.00 | 62 | 1010.2 |
| 20260509032411 | 65 | 349 | 2.0 | 4.0 | 0.00 | 0.00 | 0.00 | 63 | 1010.1 |
| 20260509031912 | 65 | 351 | 2.0 | 5.0 | 0.00 | 0.00 | 0.00 | 64 | 1009.9 |
| 20260509031411 | 66 | 351 | 3.0 | 5.0 | 0.00 | 0.00 | 0.00 | 63 | 1009.7 |
| 20260509030911 | 66 | 336 | 2.0 | 7.0 | 0.00 | 0.00 | 0.00 | 60 | 1009.5 |
| 20260509030411 | 66 | 354 | 2.0 | 6.0 | 0.00 | 0.00 | 0.00 | 60 | 1009.4 |
| 20260509025912 | 66 | 294 | 3.0 | 7.0 | 0.00 | 0.00 | 0.00 | 63 | 1009.3 |
| 20260509025411 | 66 | 341 | 2.0 | 5.0 | 0.00 | 0.00 | 0.00 | 64 | 1009.3 |
| 20260509024911 | 66 | 310 | 2.0 | 4.0 | 0.00 | 0.00 | 0.00 | 62 | 1009.3 |
| 20260509024411 | 66 | 349 | 2.0 | 7.0 | 0.00 | 0.00 | 0.00 | 62 | 1009.2 |
| 20260509023911 | 66 | 335 | 3.0 | 5.0 | 0.00 | 0.00 | 0.00 | 62 | 1009.1 |
| 20260509023411 | 67 | 330 | 1.0 | 7.0 | 0.00 | 0.00 | 0.00 | 62 | 1009.1 |
| 20260509022911 | 67 | 334 | 2.0 | 9.0 | 0.00 | 0.00 | 0.00 | 61 | 1009.0 |
| 20260509022411 | 67 | 321 | 4.0 | 9.0 | 0.00 | 0.00 | 0.00 | 61 | 1008.8 |
| 20260509021911 | 67 | 334 | 1.0 | 6.0 | 0.00 | 0.00 | 0.00 | 62 | 1008.7 |
| 20260509021412 | 67 | 312 | 3.0 | 6.0 | 0.00 | 0.00 | 0.00 | 61 | 1008.8 |
| 20260509020911 | 68 | 333 | 3.0 | 7.0 | 0.00 | 0.00 | 0.00 | 62 | 1008.7 |
| 20260509020411 | 67 | 310 | 3.0 | 9.0 | 0.00 | 0.00 | 0.00 | 63 | 1008.7 |
| 20260509015913 | 67 | 309 | 3.0 | 9.0 | 0.00 | 0.00 | 0.00 | 62 | 1008.8 |
| 20260509015411 | 66 | 326 | 2.0 | 4.0 | 0.00 | 0.00 | 0.00 | 66 | 1008.8 |
| 20260509014911 | 66 | 359 | 0.0 | 5.0 | 0.00 | 0.00 | 0.00 | 72 | 1008.5 |
| 20260509014412 | 66 | 329 | 2.0 | 5.0 | 0.00 | 0.00 | 0.00 | 69 | 1008.0 |
| 20260509013913 | 66 | 132 | 2.0 | 3.0 | 0.00 | 0.00 | 0.00 | 72 | 1007.7 |
| 20260509013419 | 66 | 32 | 1.0 | 3.0 | 0.00 | 0.00 | 0.00 | 72 | 1008.0 |
| 20260509012913 | 67 | 25 | 0.0 | 3.0 | 0.00 | 0.00 | 0.00 | 71 | 1007.9 |
| 20260509012411 | 67 | 19 | 1.0 | 5.0 | 0.00 | 0.00 | 0.00 | 69 | 1007.8 |
| 20260509011911 | 68 | 147 | 3.0 | 7.0 | 0.00 | 0.00 | 0.00 | 66 | 1007.2 |
| 20260509011411 | 68 | 34 | 1.0 | 6.0 | 0.00 | 0.00 | 0.00 | 66 | 1007.5 |
| 20260509010911 | 68 | 287 | 2.0 | 8.0 | 0.00 | 0.00 | 0.00 | 66 | 1008.1 |
| 20260509010411 | 69 | 12 | 2.0 | 9.0 | 0.00 | 0.00 | 0.00 | 64 | 1008.8 |
| 20260509005911 | 69 | 336 | 2.0 | 9.0 | 0.00 | 0.00 | 0.00 | 62 | 1008.8 |
| 20260509005411 | 69 | 329 | 4.0 | 7.0 | 0.00 | 0.00 | 0.00 | 63 | 1008.9 |
| 20260509004911 | 70 | 352 | 2.0 | 6.0 | 0.00 | 0.00 | 0.00 | 62 | 1008.9 |
| 20260509004412 | 70 | 337 | 2.0 | 5.0 | 0.00 | 0.00 | 0.00 | 60 | 1008.7 |
| 20260509003911 | 70 | 348 | 0.0 | 4.0 | 0.00 | 0.00 | 0.00 | 63 | 1008.8 |
| 20260509003411 | 70 | 350 | 2.0 | 4.0 | 0.00 | 0.00 | 0.00 | 61 | 1009.0 |
| 20260509002911 | 70 | 0 | 0.0 | 2.0 | 0.00 | 0.00 | 0.00 | 61 | 1008.3 |
| 20260509002411 | 70 | 334 | 1.0 | 3.0 | 0.00 | 0.00 | 0.00 | 63 | 1008.3 |
| 20260509001911 | 70 | 341 | 1.0 | 2.0 | 0.00 | 0.00 | 0.00 | 63 | 1008.2 |
| 20260509001411 | 71 | 258 | 0.0 | 3.0 | 0.00 | 0.00 | 0.00 | 61 | 1007.9 |
| 20260509000912 | 71 | 142 | 1.0 | 2.0 | 0.00 | 0.00 | 0.00 | 59 | 1007.7 |
| 20260509000411 | 72 | 336 | 1.0 | 2.0 | 0.00 | 0.00 | 0.00 | 59 | 1007.9 |
| 20260508235911 | 72 | 284 | 0.0 | 1.0 | 0.00 | 0.00 | 0.00 | 57 | 1008.0 |
| 20260508235411 | 73 | 0 | 0.0 | 3.0 | 0.00 | 0.00 | 0.00 | 57 | 1008.2 |
| 20260508234911 | 74 | 233 | 0.0 | 2.0 | 0.00 | 0.00 | 0.00 | 54 | 1008.2 |
| 20260508234412 | 74 | 234 | 1.0 | 2.0 | 0.00 | 0.00 | 0.00 | 53 | 1008.5 |
| 20260508233911 | 74 | 0 | 0.0 | 2.0 | 0.00 | 0.00 | 0.00 | 51 | 1008.5 |
| 20260508233411 | 75 | 264 | 0.0 | 2.0 | 0.00 | 0.00 | 0.00 | 51 | 1008.7 |
| 20260508232911 | 75 | 287 | 0.0 | 2.0 | 0.00 | 0.00 | 0.00 | 49 | 1008.8 |
| 20260508232411 | 75 | 0 | 0.0 | 7.0 | 0.00 | 0.00 | 0.00 | 50 | 1008.9 |
| 20260508231912 | 75 | 328 | 4.0 | 8.0 | 0.00 | 0.00 | 0.00 | 48 | 1009.1 |
| 20260508231412 | 75 | 346 | 4.0 | 8.0 | 0.00 | 0.00 | 0.00 | 47 | 1009.1 |
| 20260508230911 | 75 | 336 | 2.0 | 7.0 | 0.00 | 0.00 | 0.00 | 48 | 1009.1 |
| 20260508230411 | 76 | 345 | 3.0 | 7.0 | 0.00 | 0.00 | 0.00 | 47 | 1009.0 |
| 20260508225911 | 76 | 337 | 2.0 | 4.0 | 0.00 | 0.00 | 0.00 | 46 | 1008.8 |
| 20260508225412 | 77 | 321 | 1.0 | 3.0 | 0.00 | 0.00 | 0.00 | 46 | 1008.7 |
| 20260508224911 | 77 | 334 | 0.0 | 4.0 | 0.00 | 0.00 | 0.00 | 46 | 1008.6 |
| 20260508224411 | 78 | 322 | 2.0 | 4.0 | 0.00 | 0.00 | 0.00 | 45 | 1008.7 |
| 20260508223911 | 78 | 201 | 1.0 | 6.0 | 0.00 | 0.00 | 0.00 | 43 | 1008.6 |
| 20260508223411 | 78 | 317 | 1.0 | 8.0 | 0.00 | 0.00 | 0.00 | 43 | 1008.6 |
| 20260508222911 | 79 | 353 | 3.0 | 8.0 | 0.00 | 0.00 | 0.00 | 44 | 1008.6 |
| 20260508222414 | 80 | 344 | 1.0 | 6.0 | 0.00 | 0.00 | 0.00 | 42 | 1008.5 |
| 20260508211412 | 80 | 299 | 2.0 | 5.0 | 0.00 | 0.00 | 0.00 | 41 | 1008.5 |
| 20260508210414 | 80 | 146 | 1.0 | 5.0 | 0.00 | 0.00 | 0.00 | 41 | 1008.6 |
| 20260508205912 | 80 | 326 | 2.0 | 6.0 | 0.00 | 0.00 | 0.00 | 41 | 1008.6 |
| 20260508205412 | 80 | 142 | 4.0 | 7.0 | 0.00 | 0.00 | 0.00 | 42 | 1008.7 |
| 20260508204915 | 80 | 128 | 3.0 | 10.0 | 0.00 | 0.00 | 0.00 | 40 | 1008.9 |
| 20260508204412 | 80 | 312 | 4.0 | 10.0 | 0.00 | 0.00 | 0.00 | 40 | 1009.0 |
| 20260508203911 | 79 | 138 | 4.0 | 7.0 | 0.00 | 0.00 | 0.00 | 40 | 1009.0 |
| 20260508203413 | 79 | 250 | 3.0 | 6.0 | 0.00 | 0.00 | 0.00 | 40 | 1009.2 |
| 20260508202913 | 79 | 127 | 3.0 | 8.0 | 0.00 | 0.00 | 0.00 | 41 | 1009.3 |
| 20260508202411 | 80 | 179 | 4.0 | 9.0 | 0.00 | 0.00 | 0.00 | 41 | 1009.3 |
| 20260508201913 | 81 | 296 | 2.0 | 7.0 | 0.00 | 0.00 | 0.00 | 41 | 1009.4 |
| 20260508201412 | 81 | 5 | 2.0 | 8.0 | 0.00 | 0.00 | 0.00 | 40 | 1009.4 |
| 20260508200912 | 80 | 148 | 4.0 | 9.0 | 0.00 | 0.00 | 0.00 | 41 | 1009.6 |
| 20260508200411 | 80 | 247 | 3.0 | 8.0 | 0.00 | 0.00 | 0.00 | 40 | 1009.6 |
| 20260508195914 | 80 | 273 | 1.0 | 6.0 | 0.00 | 0.00 | 0.00 | 41 | 1009.7 |
| 20260508195416 | 79 | 267 | 2.0 | 6.0 | 0.00 | 0.00 | 0.00 | 42 | 1009.7 |
| 20260508194913 | 78 | 147 | 2.0 | 8.0 | 0.00 | 0.00 | 0.00 | 43 | 1009.9 |
| 20260508194411 | 78 | 176 | 2.0 | 8.0 | 0.00 | 0.00 | 0.00 | 42 | 1010.0 |
| 20260508193912 | 77 | 168 | 4.0 | 8.0 | 0.00 | 0.00 | 0.00 | 43 | 1010.1 |
| 20260508193411 | 77 | 312 | 4.0 | 8.0 | 0.00 | 0.00 | 0.00 | 42 | 1010.1 |
| 20260508192914 | 76 | 150 | 3.0 | 7.0 | 0.00 | 0.00 | 0.00 | 44 | 1010.2 |
| 20260508192413 | 77 | 160 | 4.0 | 9.0 | 0.00 | 0.00 | 0.00 | 44 | 1010.3 |
| 20260508191912 | 77 | 82 | 2.0 | 9.0 | 0.00 | 0.00 | 0.00 | 44 | 1010.4 |
| 20260508191412 | 78 | 129 | 5.0 | 9.0 | 0.00 | 0.00 | 0.00 | 42 | 1010.4 |
| 20260508190913 | 78 | 348 | 2.0 | 12.0 | 0.00 | 0.00 | 0.00 | 42 | 1010.5 |
| 20260508190414 | 78 | 197 | 4.0 | 12.0 | 0.00 | 0.00 | 0.00 | 42 | 1010.6 |
| 20260508185911 | 79 | 162 | 6.0 | 8.0 | 0.00 | 0.00 | 0.00 | 42 | 1010.6 |
| 20260508185413 | 80 | 245 | 3.0 | 8.0 | 0.00 | 0.00 | 0.00 | 39 | 1010.7 |
| 20260508184914 | 79 | 145 | 4.0 | 8.0 | 0.00 | 0.00 | 0.00 | 42 | 1010.6 |
| 20260508184415 | 78 | 183 | 3.0 | 8.0 | 0.00 | 0.00 | 0.00 | 41 | 1010.8 |
| 20260508183412 | 77 | 156 | 5.0 | 10.0 | 0.00 | 0.00 | 0.00 | 42 | 1011.1 |
| 20260508182913 | 77 | 145 | 4.0 | 10.0 | 0.00 | 0.00 | 0.00 | 42 | 1011.1 |
| 20260508182411 | 77 | 139 | 5.0 | 9.0 | 0.00 | 0.00 | 0.00 | 43 | 1011.1 |
| 20260508181913 | 76 | 262 | 5.0 | 10.0 | 0.00 | 0.00 | 0.00 | 42 | 1011.2 |
| 20260508181413 | 76 | 151 | 6.0 | 10.0 | 0.00 | 0.00 | 0.00 | 43 | 1011.2 |
| 20260508180912 | 76 | 276 | 2.0 | 10.0 | 0.00 | 0.00 | 0.00 | 45 | 1011.5 |
| 20260508180414 | 76 | 286 | 4.0 | 10.0 | 0.00 | 0.00 | 0.00 | 44 | 1011.3 |
| 20260508175913 | 76 | 143 | 4.0 | 11.0 | 0.00 | 0.00 | 0.00 | 47 | 1011.7 |
| 20260508175413 | 75 | 230 | 5.0 | 9.0 | 0.00 | 0.00 | 0.00 | 46 | 1011.6 |
| 20260508174913 | 75 | 148 | 7.0 | 10.0 | 0.00 | 0.00 | 0.00 | 47 | 1011.7 |
| 20260508174414 | 75 | 149 | 5.0 | 9.0 | 0.00 | 0.00 | 0.00 | 46 | 1011.8 |
| 20260508173912 | 75 | 153 | 6.0 | 12.0 | 0.00 | 0.00 | 0.00 | 49 | 1011.9 |
| 20260508173414 | 75 | 155 | 6.0 | 12.0 | 0.00 | 0.00 | 0.00 | 48 | 1011.9 |
| 20260508172914 | 75 | 65 | 4.0 | 8.0 | 0.00 | 0.00 | 0.00 | 48 | 1011.9 |
| 20260508172414 | 75 | 148 | 5.0 | 8.0 | 0.00 | 0.00 | 0.00 | 49 | 1011.9 |
| 20260508171913 | 75 | 138 | 4.0 | 9.0 | 0.00 | 0.00 | 0.00 | 49 | 1012.2 |
| 20260508171411 | 74 | 166 | 4.0 | 11.0 | 0.00 | 0.00 | 0.00 | 50 | 1012.2 |
| 20260508170912 | 74 | 127 | 4.0 | 9.0 | 0.00 | 0.00 | 0.00 | 51 | 1012.4 |
| 20260508170413 | 74 | 242 | 3.0 | 8.0 | 0.00 | 0.00 | 0.00 | 52 | 1012.6 |
| 20260508165913 | 73 | 244 | 4.0 | 10.0 | 0.00 | 0.00 | 0.00 | 53 | 1012.7 |
| 20260508165413 | 73 | 111 | 2.0 | 9.0 | 0.00 | 0.00 | 0.00 | 54 | 1012.7 |
| 20260508164912 | 73 | 171 | 7.0 | 10.0 | 0.00 | 0.00 | 0.00 | 54 | 1012.9 |
| 20260508164414 | 73 | 188 | 4.0 | 9.0 | 0.00 | 0.00 | 0.00 | 54 | 1012.9 |
| 20260508163914 | 73 | 153 | 4.0 | 9.0 | 0.00 | 0.00 | 0.00 | 54 | 1013.0 |
| 20260508163413 | 73 | 160 | 7.0 | 9.0 | 0.00 | 0.00 | 0.00 | 53 | 1013.0 |
| 20260508162912 | 72 | 147 | 3.0 | 10.0 | 0.00 | 0.00 | 0.00 | 55 | 1013.0 |
| 20260508162414 | 72 | 165 | 5.0 | 9.0 | 0.00 | 0.00 | 0.00 | 55 | 1013.0 |
| 20260508161912 | 72 | 169 | 6.0 | 9.0 | 0.00 | 0.00 | 0.00 | 55 | 1013.1 |
| 20260508161415 | 72 | 255 | 5.0 | 8.0 | 0.00 | 0.00 | 0.00 | 55 | 1013.1 |
| 20260508160914 | 71 | 290 | 4.0 | 9.0 | 0.00 | 0.00 | 0.00 | 56 | 1013.2 |
| 20260508160414 | 71 | 141 | 4.0 | 10.0 | 0.00 | 0.00 | 0.00 | 57 | 1013.2 |
| 20260508155911 | 72 | 170 | 5.0 | 8.0 | 0.00 | 0.00 | 0.00 | 56 | 1013.4 |
| 20260508155413 | 72 | 150 | 3.0 | 8.0 | 0.00 | 0.00 | 0.00 | 55 | 1013.4 |
| 20260508154912 | 73 | 140 | 3.0 | 9.0 | 0.00 | 0.00 | 0.00 | 53 | 1013.5 |
| 20260508154413 | 73 | 175 | 4.0 | 9.0 | 0.00 | 0.00 | 0.00 | 52 | 1013.5 |
| 20260508153913 | 72 | 83 | 2.0 | 8.0 | 0.00 | 0.00 | 0.00 | 55 | 1013.6 |
| 20260508153411 | 72 | 145 | 1.0 | 9.0 | 0.00 | 0.00 | 0.00 | 54 | 1013.7 |
| 20260508152913 | 72 | 83 | 2.0 | 6.0 | 0.00 | 0.00 | 0.00 | 55 | 1013.8 |
| 20260508152413 | 71 | 309 | 2.0 | 9.0 | 0.00 | 0.00 | 0.00 | 55 | 1013.9 |
| 20260508151913 | 71 | 164 | 4.0 | 7.0 | 0.00 | 0.00 | 0.00 | 56 | 1013.8 |
| 20260508151413 | 71 | 327 | 1.0 | 4.0 | 0.00 | 0.00 | 0.00 | 55 | 1013.9 |
| 20260508150914 | 69 | 251 | 1.0 | 8.0 | 0.00 | 0.00 | 0.00 | 57 | 1013.9 |
| 20260508150416 | 69 | 43 | 2.0 | 8.0 | 0.00 | 0.00 | 0.00 | 56 | 1013.9 |
| 20260508145911 | 69 | 306 | 2.0 | 6.0 | 0.00 | 0.00 | 0.00 | 59 | 1014.1 |
| 20260508145413 | 69 | 229 | 4.0 | 6.0 | 0.00 | 0.00 | 0.00 | 58 | 1014.0 |
| 20260508144913 | 68 | 345 | 2.0 | 10.0 | 0.00 | 0.00 | 0.00 | 61 | 1014.0 |
| 20260508144411 | 68 | 350 | 2.0 | 7.0 | 0.00 | 0.00 | 0.00 | 60 | 1014.0 |
| 20260508143913 | 66 | 301 | 3.0 | 7.0 | 0.00 | 0.00 | 0.00 | 62 | 1014.1 |
| 20260508143412 | 66 | 310 | 3.0 | 8.0 | 0.00 | 0.00 | 0.00 | 62 | 1014.1 |
| 20260508142914 | 65 | 309 | 4.0 | 8.0 | 0.00 | 0.00 | 0.00 | 65 | 1014.1 |
| 20260508142413 | 65 | 254 | 3.0 | 8.0 | 0.00 | 0.00 | 0.00 | 64 | 1014.1 |
| 20260508141914 | 64 | 173 | 5.0 | 8.0 | 0.00 | 0.00 | 0.00 | 65 | 1014.0 |
| 20260508141413 | 64 | 283 | 3.0 | 7.0 | 0.00 | 0.00 | 0.00 | 66 | 1014.1 |
| 20260508140913 | 63 | 45 | 1.0 | 6.0 | 0.00 | 0.00 | 0.00 | 69 | 1014.0 |
| 20260508140412 | 62 | 9 | 4.0 | 6.0 | 0.00 | 0.00 | 0.00 | 69 | 1014.0 |
| 20260508135913 | 62 | 167 | 2.0 | 5.0 | 0.00 | 0.00 | 0.00 | 71 | 1014.0 |
| 20260508135413 | 61 | 339 | 3.0 | 8.0 | 0.00 | 0.00 | 0.00 | 70 | 1014.1 |
| 20260508134915 | 60 | 180 | 5.0 | 9.0 | 0.00 | 0.00 | 0.00 | 72 | 1014.0 |
| 20260508134417 | 60 | 156 | 4.0 | 6.0 | 0.00 | 0.00 | 0.00 | 74 | 1014.0 |
| 20260508133913 | 59 | 186 | 3.0 | 9.0 | 0.00 | 0.00 | 0.00 | 74 | 1014.1 |
| 20260508133413 | 59 | 151 | 2.0 | 7.0 | 0.00 | 0.00 | 0.00 | 75 | 1014.1 |
| 20260508132913 | 58 | 145 | 4.0 | 6.0 | 0.00 | 0.00 | 0.00 | 76 | 1014.1 |
| 20260508132413 | 58 | 156 | 2.0 | 6.0 | 0.00 | 0.00 | 0.00 | 77 | 1014.2 |
| 20260508131914 | 57 | 285 | 1.0 | 4.0 | 0.00 | 0.00 | 0.00 | 78 | 1014.2 |
| 20260508131413 | 56 | 153 | 1.0 | 4.0 | 0.00 | 0.00 | 0.00 | 81 | 1014.2 |
| 20260508130915 | 55 | 216 | 3.0 | 5.0 | 0.00 | 0.00 | 0.00 | 81 | 1014.3 |
| 20260508130413 | 55 | 187 | 1.0 | 4.0 | 0.00 | 0.00 | 0.00 | 81 | 1014.3 |
| 20260508125913 | 55 | 173 | 2.0 | 4.0 | 0.00 | 0.00 | 0.00 | 82 | 1014.2 |
| 20260508125413 | 54 | 140 | 2.0 | 4.0 | 0.00 | 0.00 | 0.00 | 83 | 1014.2 |
| 20260508124914 | 53 | 152 | 3.0 | 4.0 | 0.00 | 0.00 | 0.00 | 85 | 1014.1 |
| 20260508124414 | 52 | 153 | 1.0 | 3.0 | 0.00 | 0.00 | 0.00 | 87 | 1014.1 |
| 20260508123533 | 50 | 146 | 1.0 | 3.0 | 0.00 | 0.00 | 0.00 | 89 | 1014.1 |
| 20260508122913 | 49 | 150 | 1.0 | 2.0 | 0.00 | 0.00 | 0.00 | 91 | 1014.1 |
| 20260508122412 | 49 | 159 | 0.0 | 2.0 | 0.00 | 0.00 | 0.00 | 93 | 1014.1 |
| 20260508121912 | 48 | 161 | 0.0 | 2.0 | 0.00 | 0.00 | 0.00 | 94 | 1014.1 |
| 20260508121413 | 48 | 153 | 0.0 | 2.0 | 0.00 | 0.00 | 0.00 | 96 | 1014.2 |
| 20260508120915 | 48 | 0 | 0.0 | 0.0 | 0.00 | 0.00 | 0.00 | 98 | 1014.2 |
| 20260508120414 | 47 | 0 | 0.0 | 0.0 | 0.00 | 0.00 | 0.00 | 99 | 1014.2 |
| 20260508115913 | 46 | 0 | 0.0 | 0.0 | 0.00 | 0.00 | 0.00 | 99 | 1014.3 |
| 20260508115413 | 45 | 0 | 0.0 | 0.0 | 0.00 | 0.00 | 0.00 | 99 | 1014.3 |
| 20260508114913 | 44 | 0 | 0.0 | 0.0 | 0.00 | 0.00 | 0.00 | 99 | 1014.2 |
| 20260508114411 | 44 | 0 | 0.0 | 0.0 | 0.00 | 0.00 | 0.00 | 99 | 1014.1 |
| 20260508113914 | 43 | 0 | 0.0 | 1.0 | 0.00 | 0.00 | 0.00 | 99 | 1014.1 |
| 20260508113413 | 43 | 21 | 0.0 | 1.0 | 0.00 | 0.00 | 0.00 | 99 | 1014.1 |
| 20260508112912 | 43 | 0 | 0.0 | 1.0 | 0.00 | 0.00 | 0.00 | 99 | 1014.0 |
| 20260508112413 | 43 | 355 | 0.0 | 2.0 | 0.00 | 0.00 | 0.00 | 99 | 1013.9 |
| 20260508111913 | 43 | 329 | 1.0 | 2.0 | 0.00 | 0.00 | 0.00 | 99 | 1013.9 |
| 20260508111411 | 43 | 0 | 0.0 | 1.0 | 0.00 | 0.00 | 0.00 | 99 | 1013.8 |
| 20260508110913 | 43 | 315 | 0.0 | 1.0 | 0.00 | 0.00 | 0.00 | 99 | 1013.8 |
| 20260508110411 | 43 | 329 | 0.0 | 2.0 | 0.00 | 0.00 | 0.00 | 99 | 1013.8 |
| 20260508105912 | 43 | 0 | 0.0 | 2.0 | 0.00 | 0.00 | 0.00 | 99 | 1013.8 |
| 20260508105413 | 43 | 251 | 0.0 | 2.0 | 0.00 | 0.00 | 0.00 | 99 | 1013.8 |
| 20260508104913 | 43 | 327 | 0.0 | 2.0 | 0.00 | 0.00 | 0.00 | 99 | 1013.8 |
| 20260508104412 | 43 | 344 | 0.0 | 1.0 | 0.00 | 0.00 | 0.00 | 99 | 1013.8 |
| 20260508103913 | 43 | 340 | 0.0 | 2.0 | 0.00 | 0.00 | 0.00 | 99 | 1013.8 |
| 20260508103412 | 43 | 352 | 1.0 | 2.0 | 0.00 | 0.00 | 0.00 | 99 | 1013.8 |
| 20260508102913 | 43 | 0 | 0.0 | 1.0 | 0.00 | 0.00 | 0.00 | 99 | 1013.7 |
| 20260508102413 | 43 | 0 | 0.0 | 2.0 | 0.00 | 0.00 | 0.00 | 99 | 1013.7 |
| 20260508101911 | 43 | 325 | 0.0 | 2.0 | 0.00 | 0.00 | 0.00 | 99 | 1013.6 |
| 20260508101414 | 43 | 350 | 1.0 | 2.0 | 0.00 | 0.00 | 0.00 | 99 | 1013.6 |
| 20260508100911 | 43 | 356 | 0.0 | 2.0 | 0.00 | 0.00 | 0.00 | 99 | 1013.6 |
| 20260508100411 | 43 | 8 | 0.0 | 2.0 | 0.00 | 0.00 | 0.00 | 99 | 1013.7 |
| 20260508095913 | 43 | 349 | 0.0 | 1.0 | 0.00 | 0.00 | 0.00 | 99 | 1013.6 |
| 20260508095413 | 43 | 0 | 0.0 | 2.0 | 0.00 | 0.00 | 0.00 | 99 | 1013.6 |
| 20260508094912 | 43 | 339 | 1.0 | 2.0 | 0.00 | 0.00 | 0.00 | 99 | 1013.5 |
| 20260508094411 | 43 | 350 | 1.0 | 2.0 | 0.00 | 0.00 | 0.00 | 99 | 1013.6 |
| 20260508093913 | 44 | 0 | 0.0 | 1.0 | 0.00 | 0.00 | 0.00 | 99 | 1013.6 |
| 20260508093411 | 44 | 28 | 0.0 | 2.0 | 0.00 | 0.00 | 0.00 | 99 | 1013.5 |
| 20260508092913 | 43 | 0 | 0.0 | 2.0 | 0.00 | 0.00 | 0.00 | 99 | 1013.5 |
| 20260508092412 | 43 | 337 | 0.0 | 2.0 | 0.00 | 0.00 | 0.00 | 99 | 1013.5 |
| 20260508091913 | 44 | 331 | 0.0 | 1.0 | 0.00 | 0.00 | 0.00 | 99 | 1013.5 |
| 20260508091413 | 44 | 0 | 0.0 | 1.0 | 0.00 | 0.00 | 0.00 | 99 | 1013.5 |
| 20260508090911 | 44 | 321 | 0.0 | 2.0 | 0.00 | 0.00 | 0.00 | 99 | 1013.5 |
| 20260508090413 | 44 | 324 | 0.0 | 1.0 | 0.00 | 0.00 | 0.00 | 99 | 1013.5 |
| 20260508085914 | 44 | 350 | 0.0 | 2.0 | 0.00 | 0.00 | 0.00 | 99 | 1013.6 |
| 20260508085412 | 44 | 332 | 1.0 | 2.0 | 0.00 | 0.00 | 0.00 | 99 | 1013.7 |
| 20260508084913 | 44 | 347 | 0.0 | 2.0 | 0.00 | 0.00 | 0.00 | 99 | 1013.7 |
| 20260508084412 | 44 | 353 | 1.0 | 2.0 | 0.00 | 0.00 | 0.00 | 99 | 1013.6 |